| time (UTC) | temp F | wind direction | speed MPH | gust MPH | rain 1hr in | rain 24hr in | rain mn in | humidity % | barometer mb |
| 20260901085400 | 79 | 245 | 0.0 | 0.0 | 0.00 | 0.00 | 0.00 | 67 | 1018.1 |
| 20260901083358 | 81 | 184 | 1.0 | 3.0 | 0.00 | 0.00 | 0.00 | 63 | 1018.0 |
| 20260901082355 | 81 | 158 | 2.0 | 3.0 | 0.00 | 0.00 | 0.00 | 63 | 1018.1 |
| 20260901081351 | 81 | 157 | 3.0 | 4.0 | 0.00 | 0.00 | 0.00 | 63 | 1017.9 |
| 20260901080350 | 81 | 161 | 2.0 | 4.0 | 0.00 | 0.00 | 0.00 | 63 | 1017.9 |
| 20260901075351 | 81 | 157 | 2.0 | 4.0 | 0.00 | 0.00 | 0.00 | 62 | 1018.0 |
| 20260901074349 | 80 | 146 | 1.0 | 4.0 | 0.00 | 0.00 | 0.00 | 62 | 1017.8 |
| 20260901073343 | 81 | 133 | 1.0 | 3.0 | 0.00 | 0.00 | 0.00 | 61 | 1017.9 |
| 20260901072346 | 81 | 166 | 1.0 | 3.0 | 0.00 | 0.00 | 0.00 | 60 | 1018.2 |
| 20260901071823 | 82 | 177 | 2.0 | 4.0 | 0.00 | 0.00 | 0.00 | 59 | 1018.0 |
| 20260901070339 | 81 | 182 | 2.0 | 4.0 | 0.00 | 0.00 | 0.00 | 59 | 1018.0 |
| 20260901065338 | 81 | 150 | 1.0 | 6.0 | 0.00 | 0.00 | 0.00 | 59 | 1017.9 |
| 20260901064340 | 80 | 151 | 1.0 | 2.0 | 0.00 | 0.00 | 0.00 | 60 | 1017.8 |
| 20260901063337 | 80 | 151 | 0.0 | 1.0 | 0.00 | 0.00 | 0.00 | 59 | 1017.8 |
| 20260901062815 | 80 | 151 | 1.0 | 2.0 | 0.00 | 0.00 | 0.00 | 59 | 1017.9 |
| 20260901061335 | 81 | 151 | 0.0 | 1.0 | 0.00 | 0.00 | 0.00 | 59 | 1017.8 |
| 20260901060337 | 81 | 151 | 0.0 | 2.0 | 0.00 | 0.00 | 0.00 | 57 | 1018.0 |
| 20260901055334 | 82 | 123 | 2.0 | 4.0 | 0.00 | 0.00 | 0.00 | 56 | 1017.9 |
| 20260901054336 | 83 | 121 | 3.0 | 6.0 | 0.00 | 0.00 | 0.00 | 54 | 1017.8 |
| 20260901053335 | 83 | 124 | 3.0 | 6.0 | 0.00 | 0.00 | 0.00 | 54 | 1017.7 |
| 20260901052335 | 83 | 138 | 4.0 | 8.0 | 0.00 | 0.00 | 0.00 | 53 | 1017.6 |
| 20260901051822 | 84 | 130 | 4.0 | 8.0 | 0.00 | 0.00 | 0.00 | 52 | 1017.7 |
| 20260901045336 | 84 | 133 | 4.0 | 8.0 | 0.00 | 0.00 | 0.00 | 51 | 1017.5 |
| 20260901044332 | 84 | 140 | 3.0 | 4.0 | 0.00 | 0.00 | 0.00 | 50 | 1017.6 |
| 20260901043332 | 84 | 134 | 3.0 | 4.0 | 0.00 | 0.00 | 0.00 | 50 | 1017.6 |
| 20260901042333 | 85 | 159 | 3.0 | 5.0 | 0.00 | 0.00 | 0.00 | 49 | 1017.5 |
| 20260901041332 | 85 | 134 | 4.0 | 7.0 | 0.00 | 0.00 | 0.00 | 48 | 1017.4 |
| 20260901040823 | 85 | 138 | 4.0 | 6.0 | 0.00 | 0.00 | 0.00 | 47 | 1017.5 |
| 20260901035333 | 85 | 140 | 4.0 | 6.0 | 0.00 | 0.00 | 0.00 | 46 | 1017.5 |
| 20260901034333 | 86 | 136 | 4.0 | 8.0 | 0.00 | 0.00 | 0.00 | 46 | 1017.5 |
| 20260901033815 | 86 | 134 | 4.0 | 7.0 | 0.00 | 0.00 | 0.00 | 45 | 1017.4 |
| 20260901032332 | 86 | 121 | 4.0 | 8.0 | 0.00 | 0.00 | 0.00 | 44 | 1017.4 |
| 20260901031330 | 86 | 174 | 5.0 | 8.0 | 0.00 | 0.00 | 0.00 | 44 | 1017.4 |
| 20260901030330 | 86 | 131 | 5.0 | 8.0 | 0.00 | 0.00 | 0.00 | 44 | 1017.3 |
| 20260901025330 | 87 | 157 | 5.0 | 9.0 | 0.00 | 0.00 | 0.00 | 43 | 1017.3 |
| 20260901024333 | 87 | 137 | 5.0 | 8.0 | 0.00 | 0.00 | 0.00 | 44 | 1017.2 |
| 20260901023330 | 87 | 130 | 5.0 | 8.0 | 0.00 | 0.00 | 0.00 | 44 | 1017.0 |
| 20260901022816 | 88 | 146 | 4.0 | 8.0 | 0.00 | 0.00 | 0.00 | 44 | 1016.8 |
| 20260901021331 | 88 | 128 | 4.0 | 7.0 | 0.00 | 0.00 | 0.00 | 43 | 1016.7 |
| 20260901020332 | 88 | 119 | 5.0 | 9.0 | 0.00 | 0.00 | 0.00 | 43 | 1016.5 |
| 20260901015329 | 89 | 134 | 5.0 | 7.0 | 0.00 | 0.00 | 0.00 | 42 | 1016.5 |
| 20260901014330 | 89 | 163 | 4.0 | 7.0 | 0.00 | 0.00 | 0.00 | 41 | 1016.3 |
| 20260901013329 | 90 | 134 | 4.0 | 7.0 | 0.00 | 0.00 | 0.00 | 40 | 1016.3 |
| 20260901012329 | 90 | 131 | 4.0 | 6.0 | 0.00 | 0.00 | 0.00 | 40 | 1016.2 |
| 20260901011328 | 91 | 140 | 4.0 | 7.0 | 0.00 | 0.00 | 0.00 | 40 | 1016.2 |
| 20260901010331 | 91 | 140 | 5.0 | 10.0 | 0.00 | 0.00 | 0.00 | 40 | 1016.0 |
| 20260901005329 | 92 | 121 | 3.0 | 6.0 | 0.00 | 0.00 | 0.00 | 38 | 1015.9 |
| 20260901004330 | 92 | 167 | 3.0 | 6.0 | 0.00 | 0.00 | 0.00 | 38 | 1015.7 |
| 20260901003330 | 93 | 160 | 4.0 | 7.0 | 0.00 | 0.00 | 0.00 | 37 | 1015.6 |
| 20260901002324 | 93 | 171 | 3.0 | 7.0 | 0.00 | 0.00 | 0.00 | 37 | 1015.6 |
| 20260901001809 | 94 | 174 | 4.0 | 6.0 | 0.00 | 0.00 | 0.00 | 36 | 1015.5 |
| 20260901000325 | 95 | 184 | 6.0 | 9.0 | 0.00 | 0.00 | 0.00 | 34 | 1015.5 |
| 20260831235804 | 96 | 180 | 6.0 | 9.0 | 0.00 | 0.00 | 0.00 | 33 | 1015.5 |
| 20260831234322 | 96 | 176 | 5.0 | 9.0 | 0.00 | 0.00 | 0.00 | 34 | 1015.6 |
| 20260831233322 | 96 | 194 | 4.0 | 7.0 | 0.00 | 0.00 | 0.00 | 33 | 1015.6 |
| 20260831232756 | 96 | 221 | 4.0 | 10.0 | 0.00 | 0.00 | 0.00 | 33 | 1015.6 |
| 20260831231322 | 96 | 183 | 6.0 | 10.0 | 0.00 | 0.00 | 0.00 | 32 | 1015.6 |
| 20260831230323 | 98 | 174 | 6.0 | 12.0 | 0.00 | 0.00 | 0.00 | 30 | 1015.7 |
| 20260831224321 | 98 | 157 | 6.0 | 15.0 | 0.00 | 0.00 | 0.00 | 30 | 1015.7 |
| 20260831223803 | 98 | 146 | 6.0 | 11.0 | 0.00 | 0.00 | 0.00 | 28 | 1015.9 |
| 20260831222321 | 98 | 165 | 5.0 | 10.0 | 0.00 | 0.00 | 0.00 | 29 | 1015.9 |
| 20260831221322 | 98 | 211 | 9.0 | 16.0 | 0.00 | 0.00 | 0.00 | 29 | 1016.0 |
| 20260831220321 | 98 | 203 | 4.0 | 11.0 | 0.00 | 0.00 | 0.00 | 30 | 1016.0 |
| 20260831215321 | 99 | 202 | 8.0 | 13.0 | 0.00 | 0.00 | 0.00 | 28 | 1016.0 |
| 20260831214806 | 100 | 173 | 6.0 | 15.0 | 0.00 | 0.00 | 0.00 | 28 | 1016.0 |
| 20260831213322 | 99 | 153 | 4.0 | 9.0 | 0.00 | 0.00 | 0.00 | 29 | 1016.0 |
| 20260831212323 | 100 | 134 | 3.0 | 11.0 | 0.00 | 0.00 | 0.00 | 29 | 1016.2 |
| 20260831211322 | 100 | 84 | 4.0 | 11.0 | 0.00 | 0.00 | 0.00 | 28 | 1016.2 |
| 20260831210322 | 100 | 178 | 5.0 | 16.0 | 0.00 | 0.00 | 0.00 | 29 | 1016.1 |
| 20260831205321 | 100 | 306 | 3.0 | 8.0 | 0.00 | 0.00 | 0.00 | 30 | 1016.4 |
| 20260831204321 | 99 | 320 | 2.0 | 8.0 | 0.00 | 0.00 | 0.00 | 32 | 1016.4 |
| 20260831203321 | 98 | 178 | 5.0 | 13.0 | 0.00 | 0.00 | 0.00 | 32 | 1016.7 |
| 20260831202322 | 99 | 180 | 6.0 | 15.0 | 0.00 | 0.00 | 0.00 | 31 | 1016.7 |
| 20260831201319 | 99 | 169 | 6.0 | 17.0 | 0.00 | 0.00 | 0.00 | 31 | 1016.8 |
| 20260831200319 | 99 | 238 | 2.0 | 8.0 | 0.00 | 0.00 | 0.00 | 31 | 1016.8 |
| 20260831195318 | 99 | 118 | 6.0 | 14.0 | 0.00 | 0.00 | 0.00 | 31 | 1017.0 |
| 20260831194319 | 98 | 119 | 3.0 | 8.0 | 0.00 | 0.00 | 0.00 | 33 | 1017.0 |
| 20260831193316 | 97 | 195 | 2.0 | 6.0 | 0.00 | 0.00 | 0.00 | 35 | 1017.2 |
| 20260831192315 | 96 | 180 | 3.0 | 9.0 | 0.00 | 0.00 | 0.00 | 35 | 1017.4 |
| 20260831191317 | 96 | 192 | 6.0 | 12.0 | 0.00 | 0.00 | 0.00 | 34 | 1017.5 |
| 20260831190315 | 98 | 184 | 5.0 | 19.0 | 0.00 | 0.00 | 0.00 | 33 | 1017.6 |
| 20260831185317 | 98 | 154 | 5.0 | 13.0 | 0.00 | 0.00 | 0.00 | 33 | 1017.6 |
| 20260831184315 | 96 | 165 | 4.0 | 10.0 | 0.00 | 0.00 | 0.00 | 35 | 1017.8 |
| 20260831183319 | 96 | 292 | 4.0 | 7.0 | 0.00 | 0.00 | 0.00 | 35 | 1017.8 |
| 20260831182316 | 97 | 148 | 4.0 | 14.0 | 0.00 | 0.00 | 0.00 | 34 | 1018.1 |
| 20260831181309 | 98 | 278 | 3.0 | 9.0 | 0.00 | 0.00 | 0.00 | 33 | 1018.3 |
| 20260831180308 | 98 | 299 | 3.0 | 8.0 | 0.00 | 0.00 | 0.00 | 36 | 1018.4 |
| 20260831175308 | 97 | 284 | 2.0 | 6.0 | 0.00 | 0.00 | 0.00 | 39 | 1018.6 |
| 20260831174308 | 96 | 217 | 3.0 | 9.0 | 0.00 | 0.00 | 0.00 | 38 | 1018.8 |
| 20260831173753 | 97 | 145 | 3.0 | 8.0 | 0.00 | 0.00 | 0.00 | 37 | 1018.8 |
| 20260831172756 | 95 | 162 | 5.0 | 11.0 | 0.00 | 0.00 | 0.00 | 42 | 1019.1 |
| 20260831171309 | 94 | 155 | 4.0 | 9.0 | 0.00 | 0.00 | 0.00 | 41 | 1019.1 |
| 20260831170308 | 94 | 198 | 4.0 | 12.0 | 0.00 | 0.00 | 0.00 | 42 | 1019.3 |
| 20260831165308 | 96 | 203 | 3.0 | 10.0 | 0.00 | 0.00 | 0.00 | 41 | 1019.4 |
| 20260831164303 | 94 | 247 | 3.0 | 12.0 | 0.00 | 0.00 | 0.00 | 42 | 1019.4 |
| 20260831163303 | 94 | 204 | 3.0 | 8.0 | 0.00 | 0.00 | 0.00 | 43 | 1019.4 |
| 20260831162305 | 94 | 229 | 6.0 | 16.0 | 0.00 | 0.00 | 0.00 | 43 | 1019.5 |
| 20260831161303 | 93 | 191 | 6.0 | 14.0 | 0.00 | 0.00 | 0.00 | 44 | 1019.4 |
| 20260831160301 | 93 | 82 | 4.0 | 12.0 | 0.00 | 0.00 | 0.00 | 45 | 1019.4 |
| 20260831155301 | 92 | 175 | 6.0 | 11.0 | 0.00 | 0.00 | 0.00 | 46 | 1019.3 |
| 20260831154302 | 92 | 192 | 5.0 | 13.0 | 0.00 | 0.00 | 0.00 | 47 | 1019.3 |
| 20260831153301 | 91 | 209 | 6.0 | 15.0 | 0.00 | 0.00 | 0.00 | 48 | 1019.3 |
| 20260831152301 | 90 | 155 | 8.0 | 13.0 | 0.00 | 0.00 | 0.00 | 49 | 1019.4 |
| 20260831151303 | 89 | 166 | 7.0 | 12.0 | 0.00 | 0.00 | 0.00 | 50 | 1019.3 |
| 20260831150740 | 89 | 157 | 8.0 | 15.0 | 0.00 | 0.00 | 0.00 | 51 | 1019.2 |
| 20260831145306 | 88 | 202 | 9.0 | 14.0 | 0.00 | 0.00 | 0.00 | 51 | 1019.2 |
| 20260831144303 | 88 | 206 | 7.0 | 12.0 | 0.00 | 0.00 | 0.00 | 52 | 1019.1 |
| 20260831143300 | 87 | 175 | 8.0 | 12.0 | 0.00 | 0.00 | 0.00 | 54 | 1019.2 |
| 20260831141302 | 86 | 193 | 7.0 | 15.0 | 0.00 | 0.00 | 0.00 | 57 | 1019.2 |
| 20260831140302 | 85 | 168 | 5.0 | 10.0 | 0.00 | 0.00 | 0.00 | 58 | 1019.3 |
| 20260831135258 | 83 | 195 | 3.0 | 7.0 | 0.00 | 0.00 | 0.00 | 62 | 1019.3 |
| 20260831134258 | 82 | 158 | 2.0 | 4.0 | 0.00 | 0.00 | 0.00 | 63 | 1019.2 |
| 20260831133301 | 81 | 169 | 1.0 | 4.0 | 0.00 | 0.00 | 0.00 | 64 | 1018.9 |
| 20260831132258 | 80 | 162 | 0.0 | 0.0 | 0.00 | 0.00 | 0.00 | 66 | 1018.9 |
| 20260831131258 | 80 | 162 | 0.0 | 0.0 | 0.00 | 0.00 | 0.00 | 67 | 1018.8 |
| 20260831130256 | 79 | 162 | 0.0 | 0.0 | 0.00 | 0.00 | 0.00 | 68 | 1018.6 |
| 20260831125254 | 78 | 162 | 0.0 | 0.0 | 0.00 | 0.00 | 0.00 | 68 | 1018.6 |
| 20260831124257 | 78 | 162 | 0.0 | 0.0 | 0.00 | 0.00 | 0.00 | 68 | 1018.4 |
| 20260831123254 | 78 | 162 | 0.0 | 0.0 | 0.00 | 0.00 | 0.00 | 68 | 1018.3 |
| 20260831122253 | 77 | 162 | 0.0 | 0.0 | 0.00 | 0.00 | 0.00 | 68 | 1018.1 |
| 20260831120252 | 76 | 193 | 0.0 | 0.0 | 0.00 | 0.00 | 0.00 | 69 | 1018.0 |
| 20260831115252 | 76 | 163 | 0.0 | 0.0 | 0.00 | 0.00 | 0.00 | 67 | 1017.8 |
| 20260831114251 | 77 | 163 | 0.0 | 0.0 | 0.00 | 0.00 | 0.00 | 66 | 1017.7 |
| 20260831113252 | 77 | 163 | 0.0 | 0.0 | 0.00 | 0.00 | 0.00 | 66 | 1017.6 |
| 20260831112252 | 77 | 163 | 0.0 | 1.0 | 0.00 | 0.00 | 0.00 | 66 | 1017.4 |
| 20260831111253 | 77 | 163 | 0.0 | 0.0 | 0.00 | 0.00 | 0.00 | 65 | 1017.4 |
| 20260831110246 | 78 | 163 | 0.0 | 0.0 | 0.00 | 0.00 | 0.00 | 64 | 1017.3 |
| 20260831104246 | 78 | 155 | 1.0 | 3.0 | 0.00 | 0.00 | 0.00 | 63 | 1017.3 |
| 20260831103746 | 78 | 142 | 2.0 | 3.0 | 0.00 | 0.00 | 0.00 | 63 | 1017.1 |
| 20260831102247 | 79 | 150 | 2.0 | 3.0 | 0.00 | 0.00 | 0.00 | 62 | 1017.0 |
| 20260831101248 | 79 | 155 | 3.0 | 5.0 | 0.00 | 0.00 | 0.00 | 62 | 1017.1 |
| 20260831100246 | 79 | 166 | 3.0 | 5.0 | 0.00 | 0.00 | 0.00 | 62 | 1017.2 |
| 20260831095245 | 79 | 161 | 2.0 | 4.0 | 0.00 | 0.00 | 0.00 | 61 | 1017.2 |
| 20260831094244 | 80 | 163 | 3.0 | 5.0 | 0.00 | 0.00 | 0.00 | 60 | 1017.0 |
| 20260831093244 | 80 | 157 | 4.0 | 6.0 | 0.00 | 0.00 | 0.00 | 59 | 1017.0 |
| 20260831092243 | 80 | 157 | 5.0 | 7.0 | 0.00 | 0.00 | 0.00 | 59 | 1016.9 |
| 20260831091243 | 81 | 151 | 6.0 | 9.0 | 0.00 | 0.00 | 0.00 | 58 | 1016.9 |
| 20260831090241 | 81 | 163 | 7.0 | 12.0 | 0.00 | 0.00 | 0.00 | 57 | 1016.8 |